| time (UTC) | temp F | wind direction | speed MPH | gust MPH | rain 1hr in | rain 24hr in | rain mn in | humidity % | barometer mb |
| 20260831103107 | 70 | 290 | 8.0 | 18.0 | 0.00 | 0.35 | 0.10 | 63 | 1013.3 |
| 20260831102537 | 69 | 290 | 9.0 | 18.0 | 0.00 | 0.35 | 0.10 | 65 | 1013.4 |
| 20260831102037 | 69 | 294 | 9.0 | 15.0 | 0.00 | 0.35 | 0.10 | 64 | 1013.4 |
| 20260831101559 | 69 | 278 | 8.0 | 17.0 | 0.00 | 0.35 | 0.10 | 66 | 1013.2 |
| 20260831101039 | 68 | 261 | 7.0 | 17.0 | 0.00 | 0.35 | 0.10 | 67 | 1013.3 |
| 20260831100540 | 68 | 315 | 9.0 | 17.0 | 0.00 | 0.35 | 0.10 | 67 | 1013.2 |
| 20260831100112 | 69 | 316 | 7.0 | 17.0 | 0.00 | 0.35 | 0.10 | 66 | 1013.2 |
| 20260831095536 | 69 | 292 | 9.0 | 16.0 | 0.00 | 0.35 | 0.10 | 67 | 1013.0 |
| 20260831095040 | 68 | 305 | 7.0 | 15.0 | 0.00 | 0.35 | 0.10 | 67 | 1012.9 |
| 20260831094604 | 69 | 239 | 6.0 | 14.0 | 0.00 | 0.35 | 0.10 | 68 | 1013.0 |
| 20260831094039 | 69 | 323 | 5.0 | 14.0 | 0.00 | 0.35 | 0.10 | 68 | 1013.0 |
| 20260831093538 | 68 | 267 | 8.0 | 14.0 | 0.00 | 0.35 | 0.10 | 69 | 1012.8 |
| 20260831093105 | 68 | 290 | 4.0 | 14.0 | 0.00 | 0.35 | 0.10 | 70 | 1012.7 |
| 20260831092537 | 68 | 295 | 5.0 | 16.0 | 0.00 | 0.35 | 0.10 | 70 | 1012.6 |
| 20260831092037 | 68 | 308 | 5.0 | 16.0 | 0.00 | 0.35 | 0.10 | 70 | 1012.5 |
| 20260831091603 | 68 | 256 | 9.0 | 16.0 | 0.00 | 0.35 | 0.10 | 69 | 1012.5 |
| 20260831091037 | 68 | 306 | 7.0 | 14.0 | 0.00 | 0.35 | 0.10 | 70 | 1012.4 |
| 20260831090537 | 68 | 282 | 6.0 | 14.0 | 0.00 | 0.35 | 0.10 | 71 | 1012.3 |
| 20260831090101 | 67 | 269 | 7.0 | 16.0 | 0.00 | 0.35 | 0.10 | 70 | 1012.3 |
| 20260831085539 | 67 | 304 | 7.0 | 16.0 | 0.00 | 0.35 | 0.10 | 71 | 1012.2 |
| 20260831085038 | 67 | 269 | 7.0 | 19.0 | 0.00 | 0.35 | 0.10 | 71 | 1012.1 |
| 20260831084609 | 67 | 305 | 10.0 | 19.0 | 0.00 | 0.35 | 0.10 | 71 | 1012.1 |
| 20260831084037 | 67 | 316 | 5.0 | 17.0 | 0.00 | 0.35 | 0.10 | 73 | 1012.0 |
| 20260831083538 | 66 | 269 | 7.0 | 17.0 | 0.00 | 0.35 | 0.10 | 73 | 1011.8 |
| 20260831083102 | 66 | 290 | 8.0 | 17.0 | 0.00 | 0.35 | 0.10 | 73 | 1011.8 |
| 20260831082535 | 66 | 246 | 5.0 | 19.0 | 0.00 | 0.35 | 0.10 | 74 | 1011.7 |
| 20260831082037 | 65 | 291 | 7.0 | 19.0 | 0.00 | 0.35 | 0.10 | 74 | 1011.6 |
| 20260831081604 | 65 | 275 | 7.0 | 14.0 | 0.00 | 0.35 | 0.10 | 75 | 1011.6 |
| 20260831081035 | 65 | 288 | 7.0 | 15.0 | 0.00 | 0.35 | 0.10 | 75 | 1011.4 |
| 20260831080537 | 65 | 241 | 6.0 | 15.0 | 0.00 | 0.35 | 0.10 | 76 | 1011.3 |
| 20260831080132 | 65 | 205 | 6.0 | 13.0 | 0.00 | 0.35 | 0.10 | 76 | 1011.4 |
| 20260831075537 | 64 | 290 | 6.0 | 13.0 | 0.00 | 0.35 | 0.10 | 76 | 1011.3 |
| 20260831075037 | 64 | 274 | 7.0 | 14.0 | 0.00 | 0.35 | 0.10 | 76 | 1011.2 |
| 20260831074607 | 64 | 233 | 7.0 | 14.0 | 0.00 | 0.35 | 0.10 | 77 | 1011.1 |
| 20260831074037 | 64 | 296 | 7.0 | 14.0 | 0.00 | 0.35 | 0.10 | 77 | 1011.1 |
| 20260831073537 | 63 | 265 | 8.0 | 14.0 | 0.00 | 0.35 | 0.10 | 77 | 1010.9 |
| 20260831073117 | 63 | 279 | 5.0 | 12.0 | 0.00 | 0.35 | 0.10 | 78 | 1010.9 |
| 20260831072536 | 63 | 244 | 7.0 | 12.0 | 0.00 | 0.35 | 0.10 | 78 | 1010.8 |
| 20260831072034 | 63 | 248 | 5.0 | 12.0 | 0.00 | 0.35 | 0.10 | 79 | 1010.8 |
| 20260831071557 | 63 | 253 | 6.0 | 12.0 | 0.00 | 0.35 | 0.10 | 79 | 1010.8 |
| 20260831071034 | 62 | 285 | 5.0 | 12.0 | 0.00 | 0.35 | 0.10 | 79 | 1010.7 |
| 20260831070537 | 62 | 244 | 5.0 | 13.0 | 0.00 | 0.35 | 0.10 | 79 | 1010.6 |
| 20260831070056 | 62 | 247 | 7.0 | 13.0 | 0.00 | 0.35 | 0.10 | 79 | 1010.4 |
| 20260831065536 | 62 | 291 | 3.0 | 15.0 | 0.00 | 0.35 | 0.10 | 80 | 1010.4 |
| 20260831065037 | 62 | 258 | 6.0 | 15.0 | 0.00 | 0.35 | 0.10 | 80 | 1010.3 |
| 20260831064607 | 62 | 271 | 6.0 | 15.0 | 0.00 | 0.35 | 0.10 | 80 | 1010.2 |
| 20260831064036 | 62 | 207 | 5.0 | 11.0 | 0.00 | 0.35 | 0.10 | 81 | 1010.1 |
| 20260831063537 | 61 | 217 | 5.0 | 10.0 | 0.00 | 0.35 | 0.10 | 81 | 1010.1 |
| 20260831063137 | 61 | 273 | 4.0 | 10.0 | 0.00 | 0.35 | 0.10 | 81 | 1010.0 |
| 20260831063106 | 61 | 273 | 4.0 | 10.0 | 0.00 | 0.35 | 0.10 | 81 | 1010.0 |
| 20260831062537 | 61 | 260 | 5.0 | 10.0 | 0.00 | 0.35 | 0.10 | 82 | 1010.0 |
| 20260831062040 | 60 | 272 | 3.0 | 9.0 | 0.00 | 0.35 | 0.10 | 82 | 1009.9 |
| 20260831061605 | 60 | 221 | 4.0 | 9.0 | 0.00 | 0.35 | 0.10 | 82 | 1009.7 |
| 20260831061035 | 60 | 236 | 3.0 | 9.0 | 0.00 | 0.35 | 0.10 | 82 | 1009.7 |
| 20260831060538 | 60 | 264 | 3.0 | 9.0 | 0.00 | 0.35 | 0.10 | 83 | 1009.5 |
| 20260831060111 | 59 | 246 | 3.0 | 9.0 | 0.00 | 0.35 | 0.10 | 83 | 1009.6 |
| 20260831055537 | 59 | 268 | 1.0 | 9.0 | 0.00 | 0.35 | 0.10 | 83 | 1009.5 |
| 20260831055037 | 59 | 253 | 4.0 | 9.0 | 0.00 | 0.35 | 0.10 | 83 | 1009.4 |
| 20260831054601 | 59 | 261 | 3.0 | 8.0 | 0.00 | 0.35 | 0.10 | 83 | 1009.4 |
| 20260831054037 | 59 | 0 | 3.0 | 8.0 | 0.00 | 0.35 | 0.10 | 83 | 1009.2 |
| 20260831053535 | 59 | 257 | 2.0 | 7.0 | 0.00 | 0.35 | 0.10 | 83 | 1009.1 |
| 20260831053105 | 59 | 245 | 3.0 | 7.0 | 0.00 | 0.35 | 0.10 | 84 | 1009.1 |
| 20260831052537 | 59 | 264 | 2.0 | 10.0 | 0.00 | 0.35 | 0.10 | 84 | 1009.1 |
| 20260831052040 | 59 | 246 | 3.0 | 10.0 | 0.00 | 0.35 | 0.10 | 84 | 1009.0 |
| 20260831051602 | 59 | 259 | 0.0 | 5.0 | 0.00 | 0.35 | 0.10 | 84 | 1008.9 |
| 20260831051037 | 59 | 0 | 1.0 | 6.0 | 0.00 | 0.35 | 0.10 | 83 | 1008.9 |
| 20260831050537 | 59 | 0 | 0.0 | 6.0 | 0.00 | 0.35 | 0.10 | 83 | 1008.8 |
| 20260831045535 | 59 | 0 | 0.0 | 5.0 | 0.00 | 0.35 | 0.10 | 83 | 1008.6 |
| 20260831045037 | 59 | 0 | 1.0 | 5.0 | 0.00 | 0.35 | 0.10 | 83 | 1008.6 |
| 20260831044603 | 59 | 0 | 1.0 | 4.0 | 0.00 | 0.35 | 0.10 | 83 | 1008.5 |
| 20260831044038 | 59 | 0 | 0.0 | 4.0 | 0.00 | 0.35 | 0.10 | 83 | 1008.3 |
| 20260831043538 | 59 | 234 | 1.0 | 4.0 | 0.00 | 0.35 | 0.10 | 83 | 1008.3 |
| 20260831043104 | 59 | 268 | 1.0 | 4.0 | 0.00 | 0.35 | 0.10 | 83 | 1008.2 |
| 20260831042537 | 59 | 0 | 0.0 | 4.0 | 0.00 | 0.35 | 0.10 | 83 | 1008.1 |
| 20260831042040 | 59 | 264 | 0.0 | 9.0 | 0.00 | 0.35 | 0.10 | 83 | 1008.0 |
| 20260831041608 | 59 | 0 | 1.0 | 9.0 | 0.00 | 0.35 | 0.10 | 83 | 1007.9 |
| 20260831041037 | 59 | 253 | 4.0 | 10.0 | 0.00 | 0.35 | 0.10 | 83 | 1008.0 |
| 20260831040534 | 59 | 257 | 4.0 | 10.0 | 0.00 | 0.35 | 0.10 | 83 | 1008.0 |
| 20260831040100 | 59 | 207 | 3.0 | 10.0 | 0.00 | 0.35 | 0.10 | 83 | 1007.9 |
| 20260831035534 | 59 | 227 | 2.0 | 10.0 | 0.00 | 0.35 | 0.10 | 83 | 1007.8 |
| 20260831035037 | 59 | 223 | 2.0 | 9.0 | 0.00 | 0.35 | 0.10 | 83 | 1007.9 |
| 20260831034609 | 59 | 257 | 3.0 | 10.0 | 0.00 | 0.35 | 0.10 | 83 | 1007.8 |
| 20260831034037 | 60 | 0 | 2.0 | 10.0 | 0.00 | 0.35 | 0.10 | 83 | 1007.8 |
| 20260831033537 | 60 | 244 | 3.0 | 9.0 | 0.00 | 0.35 | 0.10 | 83 | 1007.8 |
| 20260831033056 | 60 | 240 | 3.0 | 9.0 | 0.00 | 0.35 | 0.10 | 83 | 1007.8 |
| 20260831032534 | 60 | 263 | 4.0 | 11.0 | 0.00 | 0.35 | 0.10 | 83 | 1007.8 |
| 20260831032040 | 60 | 236 | 3.0 | 11.0 | 0.00 | 0.35 | 0.10 | 83 | 1007.8 |
| 20260831031602 | 60 | 251 | 4.0 | 12.0 | 0.00 | 0.35 | 0.10 | 83 | 1007.8 |
| 20260831031037 | 60 | 246 | 4.0 | 12.0 | 0.00 | 0.35 | 0.10 | 83 | 1007.7 |
| 20260831030537 | 60 | 254 | 4.0 | 12.0 | 0.00 | 0.35 | 0.10 | 84 | 1007.5 |
| 20260831025537 | 60 | 228 | 4.0 | 11.0 | 0.00 | 0.35 | 0.10 | 84 | 1007.4 |
| 20260831025035 | 60 | 242 | 3.0 | 14.0 | 0.00 | 0.35 | 0.10 | 84 | 1007.4 |
| 20260831024559 | 60 | 251 | 3.0 | 14.0 | 0.00 | 0.35 | 0.10 | 84 | 1007.3 |
| 20260831024035 | 60 | 227 | 4.0 | 14.0 | 0.00 | 0.35 | 0.10 | 84 | 1007.3 |
| 20260831023537 | 60 | 221 | 3.0 | 10.0 | 0.00 | 0.35 | 0.10 | 84 | 1007.2 |
| 20260831023102 | 60 | 243 | 3.0 | 12.0 | 0.00 | 0.35 | 0.10 | 84 | 1007.1 |
| 20260831022540 | 60 | 252 | 2.0 | 12.0 | 0.00 | 0.35 | 0.10 | 84 | 1007.1 |
| 20260831022040 | 59 | 216 | 4.0 | 12.0 | 0.00 | 0.35 | 0.10 | 84 | 1007.1 |
| 20260831021600 | 59 | 284 | 3.0 | 9.0 | 0.00 | 0.35 | 0.10 | 85 | 1007.1 |
| 20260831021037 | 59 | 232 | 3.0 | 11.0 | 0.00 | 0.35 | 0.10 | 85 | 1007.1 |
| 20260831020537 | 59 | 246 | 2.0 | 11.0 | 0.00 | 0.35 | 0.10 | 85 | 1007.1 |
| 20260831020103 | 59 | 218 | 2.0 | 9.0 | 0.00 | 0.35 | 0.10 | 85 | 1007.1 |
| 20260831015534 | 59 | 232 | 4.0 | 9.0 | 0.00 | 0.35 | 0.10 | 85 | 1007.0 |
| 20260831015034 | 59 | 234 | 2.0 | 7.0 | 0.00 | 0.35 | 0.10 | 85 | 1007.0 |
| 20260831014557 | 59 | 196 | 2.0 | 8.0 | 0.00 | 0.35 | 0.10 | 85 | 1007.0 |
| 20260831014037 | 59 | 242 | 2.0 | 10.0 | 0.00 | 0.35 | 0.10 | 85 | 1006.9 |
| 20260831013537 | 59 | 242 | 4.0 | 10.0 | 0.00 | 0.35 | 0.10 | 85 | 1007.0 |
| 20260831013111 | 59 | 257 | 2.0 | 9.0 | 0.00 | 0.35 | 0.10 | 85 | 1007.0 |
| 20260831012535 | 59 | 223 | 1.0 | 7.0 | 0.00 | 0.35 | 0.10 | 85 | 1006.9 |
| 20260831012034 | 59 | 229 | 3.0 | 7.0 | 0.00 | 0.35 | 0.10 | 86 | 1006.9 |
| 20260831011600 | 59 | 229 | 2.0 | 8.0 | 0.00 | 0.35 | 0.10 | 86 | 1006.7 |
| 20260831011034 | 60 | 261 | 1.0 | 10.0 | 0.00 | 0.35 | 0.10 | 86 | 1006.8 |
| 20260831010538 | 60 | 246 | 3.0 | 10.0 | 0.00 | 0.35 | 0.10 | 86 | 1006.7 |
| 20260831010116 | 60 | 261 | 2.0 | 7.0 | 0.00 | 0.35 | 0.10 | 86 | 1006.5 |
| 20260831005537 | 60 | 243 | 2.0 | 7.0 | 0.02 | 0.35 | 0.10 | 86 | 1006.6 |
| 20260831005037 | 60 | 239 | 2.0 | 7.0 | 0.04 | 0.35 | 0.10 | 86 | 1006.6 |
| 20260831004609 | 60 | 0 | 2.0 | 8.0 | 0.05 | 0.35 | 0.10 | 86 | 1006.5 |
| 20260831004034 | 60 | 262 | 3.0 | 10.0 | 0.05 | 0.35 | 0.10 | 86 | 1006.5 |
| 20260831003535 | 60 | 248 | 3.0 | 10.0 | 0.06 | 0.35 | 0.10 | 86 | 1006.4 |
| 20260831003106 | 59 | 0 | 2.0 | 8.0 | 0.06 | 0.35 | 0.10 | 86 | 1006.4 |
| 20260831002534 | 60 | 224 | 3.0 | 8.0 | 0.06 | 0.35 | 0.10 | 85 | 1006.3 |
| 20260831002037 | 60 | 217 | 3.0 | 16.0 | 0.06 | 0.35 | 0.10 | 85 | 1006.2 |
| 20260831001557 | 60 | 236 | 5.0 | 16.0 | 0.07 | 0.35 | 0.10 | 85 | 1006.3 |
| 20260831001035 | 60 | 250 | 7.0 | 16.0 | 0.08 | 0.35 | 0.10 | 85 | 1006.2 |
| 20260831000537 | 60 | 229 | 6.0 | 16.0 | 0.09 | 0.35 | 0.10 | 84 | 1006.2 |
| 20260831000103 | 61 | 244 | 7.0 | 16.0 | 0.08 | 0.33 | 0.08 | 85 | 1006.1 |
| 20260830235539 | 62 | 256 | 6.0 | 12.0 | 0.07 | 0.32 | 0.07 | 85 | 1006.2 |
| 20260830235034 | 62 | 238 | 5.0 | 12.0 | 0.05 | 0.30 | 0.05 | 85 | 1006.1 |
| 20260830234603 | 62 | 250 | 6.0 | 13.0 | 0.04 | 0.29 | 0.04 | 85 | 1005.9 |
| 20260830234037 | 62 | 240 | 6.0 | 13.0 | 0.04 | 0.29 | 0.04 | 85 | 1006.0 |
| 20260830233534 | 62 | 249 | 6.0 | 12.0 | 0.03 | 0.29 | 0.03 | 85 | 1005.9 |
| 20260830233058 | 62 | 236 | 4.0 | 14.0 | 0.03 | 0.29 | 0.03 | 84 | 1005.9 |
| 20260830232534 | 62 | 251 | 6.0 | 15.0 | 0.03 | 0.29 | 0.03 | 83 | 1005.9 |
| 20260830232037 | 62 | 191 | 6.0 | 19.0 | 0.03 | 0.29 | 0.03 | 82 | 1005.9 |
| 20260830231555 | 62 | 221 | 9.0 | 22.0 | 0.03 | 0.28 | 0.03 | 80 | 1006.0 |
| 20260830231037 | 63 | 211 | 9.0 | 22.0 | 0.01 | 0.26 | 0.01 | 79 | 1006.2 |
| 20260830230537 | 64 | 242 | 11.0 | 21.0 | 0.00 | 0.25 | 0.00 | 80 | 1006.1 |
| 20260830230106 | 64 | 209 | 9.0 | 19.0 | 0.00 | 0.25 | 0.00 | 80 | 1006.0 |
| 20260830225537 | 64 | 243 | 10.0 | 19.0 | 0.00 | 0.25 | 0.25 | 80 | 1006.0 |
| 20260830225037 | 64 | 236 | 10.0 | 25.0 | 0.00 | 0.25 | 0.25 | 80 | 1006.0 |
| 20260830224607 | 64 | 232 | 10.0 | 25.0 | 0.00 | 0.25 | 0.25 | 80 | 1006.0 |
| 20260830224035 | 64 | 267 | 9.0 | 18.0 | 0.00 | 0.25 | 0.25 | 80 | 1005.9 |
| 20260830223535 | 64 | 231 | 8.0 | 18.0 | 0.00 | 0.25 | 0.25 | 81 | 1005.9 |
| 20260830223059 | 64 | 211 | 7.0 | 18.0 | 0.00 | 0.25 | 0.25 | 81 | 1005.9 |
| 20260830222535 | 64 | 201 | 10.0 | 20.0 | 0.00 | 0.25 | 0.25 | 81 | 1006.0 |
| 20260830222040 | 64 | 260 | 8.0 | 20.0 | 0.00 | 0.25 | 0.25 | 81 | 1006.1 |
| 20260830221554 | 64 | 167 | 11.0 | 20.0 | 0.00 | 0.25 | 0.25 | 81 | 1006.1 |
| 20260830221037 | 65 | 193 | 8.0 | 18.0 | 0.00 | 0.25 | 0.25 | 81 | 1006.1 |
| 20260830220537 | 64 | 206 | 9.0 | 19.0 | 0.00 | 0.25 | 0.25 | 81 | 1006.1 |
| 20260830220104 | 64 | 188 | 10.0 | 19.0 | 0.00 | 0.25 | 0.25 | 81 | 1006.2 |
| 20260830215537 | 64 | 247 | 10.0 | 19.0 | 0.00 | 0.25 | 0.25 | 80 | 1006.2 |
| 20260830215036 | 64 | 196 | 10.0 | 17.0 | 0.00 | 0.25 | 0.25 | 80 | 1006.3 |
| 20260830214600 | 64 | 221 | 9.0 | 20.0 | 0.00 | 0.25 | 0.25 | 80 | 1006.4 |
| 20260830214037 | 64 | 211 | 8.0 | 20.0 | 0.00 | 0.25 | 0.25 | 80 | 1006.4 |
| 20260830213538 | 64 | 202 | 9.0 | 19.0 | 0.00 | 0.25 | 0.25 | 80 | 1006.4 |
| 20260830213058 | 64 | 205 | 10.0 | 19.0 | 0.00 | 0.25 | 0.25 | 81 | 1006.4 |
| 20260830212536 | 64 | 218 | 7.0 | 18.0 | 0.00 | 0.25 | 0.25 | 81 | 1006.5 |
| 20260830212037 | 64 | 202 | 8.0 | 15.0 | 0.00 | 0.25 | 0.25 | 82 | 1006.5 |
| 20260830211557 | 64 | 220 | 6.0 | 16.0 | 0.00 | 0.25 | 0.25 | 82 | 1006.5 |
| 20260830211035 | 64 | 242 | 8.0 | 16.0 | 0.00 | 0.25 | 0.25 | 82 | 1006.5 |
| 20260830210537 | 64 | 235 | 7.0 | 14.0 | 0.00 | 0.25 | 0.25 | 82 | 1006.6 |
| 20260830210101 | 63 | 206 | 4.0 | 13.0 | 0.00 | 0.25 | 0.25 | 82 | 1006.7 |
| 20260830205536 | 64 | 230 | 7.0 | 14.0 | 0.00 | 0.25 | 0.25 | 82 | 1006.7 |
| 20260830205038 | 64 | 242 | 5.0 | 14.0 | 0.00 | 0.25 | 0.25 | 82 | 1006.8 |
| 20260830204600 | 64 | 225 | 7.0 | 18.0 | 0.00 | 0.25 | 0.25 | 83 | 1006.7 |
| 20260830204037 | 64 | 234 | 7.0 | 18.0 | 0.00 | 0.25 | 0.25 | 83 | 1006.7 |
| 20260830203537 | 64 | 242 | 6.0 | 18.0 | 0.00 | 0.25 | 0.25 | 83 | 1006.8 |
| 20260830203103 | 64 | 223 | 9.0 | 18.0 | 0.00 | 0.25 | 0.25 | 83 | 1006.9 |
| 20260830202536 | 64 | 236 | 6.0 | 17.0 | 0.00 | 0.25 | 0.25 | 84 | 1006.9 |
| 20260830202037 | 64 | 257 | 6.0 | 15.0 | 0.00 | 0.25 | 0.25 | 84 | 1006.9 |
| 20260830201559 | 63 | 257 | 7.0 | 14.0 | 0.00 | 0.25 | 0.25 | 85 | 1007.0 |
| 20260830201036 | 63 | 221 | 4.0 | 14.0 | 0.00 | 0.25 | 0.25 | 85 | 1006.9 |
| 20260830200536 | 63 | 252 | 6.0 | 14.0 | 0.00 | 0.25 | 0.25 | 85 | 1006.9 |
| 20260830200058 | 63 | 222 | 6.0 | 16.0 | 0.00 | 0.25 | 0.25 | 85 | 1007.0 |
| 20260830195537 | 63 | 258 | 6.0 | 16.0 | 0.00 | 0.25 | 0.25 | 85 | 1007.0 |
| 20260830195038 | 63 | 234 | 4.0 | 12.0 | 0.00 | 0.25 | 0.25 | 85 | 1006.9 |
| 20260830194613 | 63 | 224 | 4.0 | 15.0 | 0.00 | 0.25 | 0.25 | 85 | 1006.9 |
| 20260830194037 | 63 | 0 | 6.0 | 15.0 | 0.18 | 0.25 | 0.25 | 85 | 1006.9 |
| 20260830193538 | 63 | 215 | 5.0 | 15.0 | 0.22 | 0.25 | 0.25 | 86 | 1006.9 |
| 20260830193101 | 63 | 237 | 6.0 | 12.0 | 0.22 | 0.25 | 0.25 | 86 | 1006.9 |
| 20260830192538 | 63 | 231 | 5.0 | 13.0 | 0.22 | 0.25 | 0.25 | 86 | 1006.9 |
| 20260830192036 | 63 | 229 | 5.0 | 13.0 | 0.22 | 0.25 | 0.25 | 87 | 1007.0 |
| 20260830191558 | 63 | 242 | 5.0 | 12.0 | 0.22 | 0.25 | 0.25 | 87 | 1007.0 |
| 20260830191040 | 62 | 246 | 5.0 | 14.0 | 0.22 | 0.25 | 0.25 | 87 | 1006.9 |
| 20260830190537 | 62 | 225 | 6.0 | 14.0 | 0.22 | 0.25 | 0.25 | 86 | 1006.9 |
| 20260830190058 | 62 | 215 | 5.0 | 14.0 | 0.22 | 0.25 | 0.25 | 86 | 1006.9 |
| 20260830185537 | 62 | 232 | 7.0 | 14.0 | 0.23 | 0.25 | 0.25 | 85 | 1006.7 |
| 20260830185038 | 63 | 250 | 6.0 | 19.0 | 0.25 | 0.25 | 0.25 | 84 | 1006.7 |
| 20260830184605 | 64 | 221 | 9.0 | 19.0 | 0.24 | 0.24 | 0.24 | 83 | 1006.8 |
| 20260830184037 | 65 | 215 | 9.0 | 14.0 | 0.03 | 0.03 | 0.03 | 82 | 1006.8 |
| 20260830183541 | 65 | 190 | 6.0 | 14.0 | 0.03 | 0.03 | 0.03 | 82 | 1006.6 |
| 20260830183100 | 65 | 232 | 5.0 | 18.0 | 0.03 | 0.03 | 0.03 | 82 | 1006.7 |
| 20260830182538 | 65 | 207 | 6.0 | 18.0 | 0.03 | 0.03 | 0.03 | 82 | 1006.7 |
| 20260830182037 | 65 | 233 | 8.0 | 21.0 | 0.03 | 0.03 | 0.03 | 81 | 1006.7 |
| 20260830181603 | 65 | 243 | 8.0 | 21.0 | 0.03 | 0.03 | 0.03 | 81 | 1006.7 |
| 20260830181037 | 65 | 223 | 5.0 | 18.0 | 0.03 | 0.03 | 0.03 | 81 | 1006.9 |
| 20260830180538 | 66 | 190 | 7.0 | 18.0 | 0.03 | 0.03 | 0.03 | 80 | 1006.9 |
| 20260830180059 | 66 | 246 | 5.0 | 15.0 | 0.03 | 0.03 | 0.03 | 80 | 1007.0 |
| 20260830175538 | 67 | 236 | 6.0 | 15.0 | 0.00 | 0.00 | 0.00 | 78 | 1006.9 |
| 20260830175037 | 67 | 213 | 5.0 | 12.0 | 0.00 | 0.00 | 0.00 | 78 | 1006.9 |
| 20260830174638 | 67 | 222 | 5.0 | 12.0 | 0.00 | 0.00 | 0.00 | 77 | 1007.1 |
| 20260830174037 | 67 | 213 | 4.0 | 15.0 | 0.00 | 0.00 | 0.00 | 76 | 1007.2 |
| 20260830173536 | 67 | 213 | 5.0 | 15.0 | 0.00 | 0.00 | 0.00 | 75 | 1007.2 |
| 20260830173126 | 67 | 173 | 5.0 | 12.0 | 0.00 | 0.00 | 0.00 | 76 | 1007.2 |
| 20260830172536 | 67 | 222 | 5.0 | 12.0 | 0.00 | 0.00 | 0.00 | 76 | 1007.3 |
| 20260830172036 | 67 | 185 | 5.0 | 15.0 | 0.00 | 0.00 | 0.00 | 76 | 1007.5 |
| 20260830171611 | 67 | 217 | 6.0 | 15.0 | 0.00 | 0.00 | 0.00 | 75 | 1007.5 |
| 20260830171037 | 67 | 217 | 7.0 | 14.0 | 0.00 | 0.00 | 0.00 | 75 | 1007.5 |
| 20260830170537 | 67 | 237 | 5.0 | 13.0 | 0.00 | 0.00 | 0.00 | 76 | 1007.6 |
| 20260830170054 | 67 | 204 | 6.0 | 15.0 | 0.00 | 0.00 | 0.00 | 75 | 1007.6 |
| 20260830165536 | 67 | 215 | 5.0 | 15.0 | 0.00 | 0.00 | 0.00 | 75 | 1007.7 |
| 20260830165037 | 67 | 233 | 7.0 | 14.0 | 0.00 | 0.00 | 0.00 | 75 | 1007.8 |
| 20260830164625 | 67 | 240 | 7.0 | 16.0 | 0.00 | 0.00 | 0.00 | 75 | 1007.8 |
| 20260830164037 | 68 | 241 | 7.0 | 16.0 | 0.00 | 0.00 | 0.00 | 74 | 1007.8 |
| 20260830163537 | 68 | 240 | 7.0 | 16.0 | 0.00 | 0.00 | 0.00 | 73 | 1007.8 |
| 20260830163059 | 68 | 213 | 6.0 | 14.0 | 0.00 | 0.00 | 0.00 | 73 | 1007.9 |
| 20260830162537 | 68 | 209 | 8.0 | 14.0 | 0.00 | 0.00 | 0.00 | 72 | 1007.9 |
| 20260830162037 | 68 | 213 | 4.0 | 14.0 | 0.00 | 0.00 | 0.00 | 72 | 1007.8 |
| 20260830161612 | 68 | 217 | 7.0 | 16.0 | 0.00 | 0.00 | 0.00 | 72 | 1007.8 |
| 20260830161036 | 68 | 186 | 7.0 | 16.0 | 0.00 | 0.00 | 0.00 | 73 | 1007.9 |
| 20260830160540 | 68 | 237 | 6.0 | 14.0 | 0.00 | 0.00 | 0.00 | 73 | 1007.9 |
| 20260830160105 | 68 | 215 | 7.0 | 17.0 | 0.00 | 0.00 | 0.00 | 73 | 1008.0 |
| 20260830155536 | 68 | 227 | 5.0 | 17.0 | 0.00 | 0.00 | 0.00 | 73 | 1008.0 |
| 20260830155036 | 68 | 206 | 7.0 | 17.0 | 0.00 | 0.00 | 0.00 | 73 | 1008.2 |
| 20260830154555 | 68 | 209 | 7.0 | 15.0 | 0.00 | 0.00 | 0.00 | 73 | 1008.5 |
| 20260830154036 | 68 | 233 | 8.0 | 14.0 | 0.00 | 0.00 | 0.00 | 73 | 1008.5 |
| 20260830153537 | 68 | 257 | 7.0 | 14.0 | 0.00 | 0.00 | 0.00 | 73 | 1008.5 |
| 20260830153057 | 68 | 240 | 6.0 | 15.0 | 0.00 | 0.00 | 0.00 | 73 | 1008.6 |
| 20260830152537 | 68 | 244 | 8.0 | 17.0 | 0.00 | 0.00 | 0.00 | 73 | 1008.5 |
| 20260830152037 | 69 | 238 | 8.0 | 17.0 | 0.00 | 0.00 | 0.00 | 72 | 1008.5 |
| 20260830151601 | 69 | 190 | 7.0 | 13.0 | 0.00 | 0.00 | 0.00 | 71 | 1008.7 |
| 20260830151037 | 69 | 238 | 7.0 | 15.0 | 0.00 | 0.00 | 0.00 | 71 | 1008.7 |
| 20260830150537 | 69 | 225 | 8.0 | 19.0 | 0.00 | 0.00 | 0.00 | 71 | 1008.8 |
| 20260830150101 | 69 | 252 | 6.0 | 19.0 | 0.00 | 0.00 | 0.00 | 71 | 1008.7 |
| 20260830145540 | 69 | 273 | 8.0 | 18.0 | 0.00 | 0.02 | 0.00 | 71 | 1008.9 |
| 20260830145037 | 69 | 236 | 6.0 | 17.0 | 0.00 | 0.02 | 0.00 | 71 | 1008.9 |
| 20260830144600 | 69 | 265 | 8.0 | 19.0 | 0.00 | 0.02 | 0.00 | 71 | 1009.0 |
| 20260830144037 | 69 | 222 | 8.0 | 19.0 | 0.00 | 0.02 | 0.00 | 71 | 1009.1 |
| 20260830143536 | 69 | 124 | 8.0 | 18.0 | 0.00 | 0.02 | 0.00 | 71 | 1009.1 |
| 20260830143106 | 69 | 202 | 8.0 | 18.0 | 0.00 | 0.02 | 0.00 | 71 | 1009.2 |
| 20260830142536 | 70 | 223 | 8.0 | 18.0 | 0.00 | 0.02 | 0.00 | 70 | 1009.2 |
| 20260830142038 | 70 | 199 | 6.0 | 14.0 | 0.00 | 0.02 | 0.00 | 70 | 1009.2 |
| 20260830141559 | 70 | 184 | 6.0 | 15.0 | 0.00 | 0.02 | 0.00 | 70 | 1009.2 |
| 20260830141036 | 70 | 241 | 7.0 | 15.0 | 0.00 | 0.02 | 0.00 | 70 | 1009.3 |
| 20260830140536 | 70 | 275 | 5.0 | 15.0 | 0.00 | 0.02 | 0.00 | 70 | 1009.3 |
| 20260830140116 | 70 | 155 | 7.0 | 15.0 | 0.00 | 0.02 | 0.00 | 71 | 1009.2 |
| 20260830135541 | 70 | 231 | 7.0 | 22.0 | 0.00 | 0.02 | 0.00 | 70 | 1009.4 |
| 20260830135037 | 69 | 213 | 10.0 | 22.0 | 0.00 | 0.02 | 0.00 | 71 | 1009.3 |
| 20260830134604 | 69 | 206 | 9.0 | 21.0 | 0.00 | 0.02 | 0.00 | 69 | 1009.3 |
| 20260830134037 | 70 | 223 | 7.0 | 20.0 | 0.00 | 0.02 | 0.00 | 70 | 1009.3 |
| 20260830133539 | 70 | 229 | 10.0 | 20.0 | 0.00 | 0.02 | 0.00 | 71 | 1009.3 |
| 20260830133059 | 69 | 245 | 10.0 | 19.0 | 0.00 | 0.02 | 0.00 | 70 | 1009.4 |
| 20260830132537 | 69 | 281 | 7.0 | 16.0 | 0.00 | 0.02 | 0.00 | 70 | 1009.4 |
| 20260830132036 | 70 | 237 | 9.0 | 17.0 | 0.00 | 0.02 | 0.00 | 70 | 1009.4 |
| 20260830131608 | 70 | 244 | 9.0 | 18.0 | 0.00 | 0.02 | 0.00 | 69 | 1009.4 |
| 20260830131036 | 69 | 221 | 8.0 | 19.0 | 0.00 | 0.02 | 0.00 | 70 | 1009.4 |
| 20260830130538 | 69 | 207 | 9.0 | 19.0 | 0.00 | 0.02 | 0.00 | 70 | 1009.5 |
| 20260830130059 | 70 | 240 | 7.0 | 17.0 | 0.00 | 0.02 | 0.00 | 70 | 1009.6 |
| 20260830125536 | 70 | 215 | 8.0 | 17.0 | 0.00 | 0.08 | 0.00 | 70 | 1009.5 |
| 20260830125037 | 69 | 216 | 11.0 | 18.0 | 0.00 | 0.08 | 0.00 | 70 | 1009.6 |
| 20260830124606 | 69 | 240 | 8.0 | 18.0 | 0.00 | 0.08 | 0.00 | 71 | 1009.6 |
| 20260830124040 | 69 | 232 | 9.0 | 17.0 | 0.00 | 0.08 | 0.00 | 71 | 1009.7 |
| 20260830123540 | 69 | 234 | 6.0 | 19.0 | 0.00 | 0.08 | 0.00 | 72 | 1009.7 |
| 20260830123109 | 69 | 196 | 11.0 | 19.0 | 0.00 | 0.08 | 0.00 | 71 | 1009.6 |
| 20260830122537 | 69 | 273 | 7.0 | 17.0 | 0.00 | 0.08 | 0.00 | 73 | 1009.6 |
| 20260830122037 | 68 | 188 | 9.0 | 18.0 | 0.00 | 0.08 | 0.00 | 73 | 1009.7 |
| 20260830121558 | 68 | 261 | 10.0 | 18.0 | 0.00 | 0.08 | 0.00 | 72 | 1009.8 |
| 20260830121036 | 68 | 244 | 9.0 | 16.0 | 0.00 | 0.08 | 0.00 | 72 | 1009.8 |
| 20260830120537 | 68 | 211 | 8.0 | 21.0 | 0.00 | 0.08 | 0.00 | 73 | 1009.9 |
| 20260830120109 | 68 | 249 | 9.0 | 21.0 | 0.00 | 0.08 | 0.00 | 72 | 1009.9 |
| 20260830115537 | 68 | 178 | 9.0 | 21.0 | 0.00 | 0.13 | 0.00 | 72 | 1009.8 |
| 20260830115037 | 68 | 215 | 11.0 | 21.0 | 0.00 | 0.13 | 0.00 | 71 | 1009.7 |
| 20260830114600 | 68 | 258 | 12.0 | 20.0 | 0.00 | 0.13 | 0.00 | 70 | 1009.7 |
| 20260830114041 | 69 | 233 | 8.0 | 18.0 | 0.00 | 0.13 | 0.00 | 72 | 1009.7 |
| 20260830113538 | 69 | 238 | 8.0 | 17.0 | 0.00 | 0.13 | 0.00 | 71 | 1009.8 |
| 20260830113057 | 69 | 215 | 8.0 | 17.0 | 0.00 | 0.13 | 0.00 | 71 | 1009.7 |
| 20260830112536 | 69 | 238 | 7.0 | 16.0 | 0.00 | 0.13 | 0.00 | 71 | 1009.7 |
| 20260830112037 | 69 | 224 | 8.0 | 14.0 | 0.00 | 0.13 | 0.00 | 71 | 1009.9 |
| 20260830111554 | 69 | 227 | 4.0 | 15.0 | 0.00 | 0.13 | 0.00 | 74 | 1009.9 |
| 20260830111036 | 68 | 281 | 8.0 | 17.0 | 0.00 | 0.13 | 0.00 | 73 | 1010.0 |
| 20260830110535 | 68 | 268 | 9.0 | 17.0 | 0.00 | 0.13 | 0.00 | 74 | 1010.1 |
| 20260830110105 | 68 | 269 | 7.0 | 16.0 | 0.00 | 0.13 | 0.00 | 75 | 1010.1 |
| 20260830105537 | 68 | 199 | 8.0 | 16.0 | 0.00 | 0.13 | 0.00 | 76 | 1010.2 |
| 20260830105036 | 67 | 254 | 9.0 | 17.0 | 0.00 | 0.13 | 0.00 | 75 | 1010.2 |
| 20260830104607 | 67 | 173 | 9.0 | 17.0 | 0.00 | 0.13 | 0.00 | 75 | 1010.2 |
| 20260830104038 | 67 | 225 | 7.0 | 17.0 | 0.00 | 0.13 | 0.00 | 75 | 1010.3 |
| 20260830103537 | 67 | 224 | 7.0 | 20.0 | 0.00 | 0.13 | 0.00 | 75 | 1010.2 |